Location: ???????
(52.3000°N, 54.4667°E)
Time: 21:15:58
(UTC+00:00)

Cosmos 2082 Rocket - Pass Details

Date: 24 January 2020
Orbit: 835 x 852 km, 71.0° (Epoch: 16 February)

Event Time Altitude Azimuth Distance (km) Brightness Sun altitude
Rises 15:14:30 0° 314° (NW) 3,395 6.0 -21.2°
Reaches altitude 10° 15:18:59 10° 347° (NNW) 2,459 4.7 -21.9°
Maximum altitude 15:20:48 11° 6° (N) 2,354 4.4 -22.2°
Enters shadow 15:21:53 11° 18° (NNE) 2,390 4.3 -22.3°
